Weather History for Martinsburg, WV

Change the Weather History Date:

Wednesday, November 7, 2012

  Actual Average Record
Temperature  
Mean Temperature 38 °F 47 °F  
Max Temperature 42 °F 58 °F 72 °F (1945)
Min Temperature 34 °F 36 °F 19 °F (1962)
Degree Days  
Heating Degree Days 27 18  
Month to date heating degree days 169 119  
Since 1 July heating degree days 559 565  
Cooling Degree Days 0 0  
Month to date cooling degree days 0 0  
Year to date cooling degree days 1145 895  
Moisture  
Dew Point 23 °F    
Average Humidity 57    
Maximum Humidity 70    
Minimum Humidity 44    
Precipitation  
Precipitation 0.00 in 0.10 in 3.33 in (1997)
Month to date precipitation T 0.72  
Year to date precipitation 28.63 33.58  
Sea Level Pressure  
Sea Level Pressure 29.97 in    
Wind  
Wind Speed 7 mph (North)    
Max Wind Speed 13 mph    
Max Gust Speed 22 mph    
Visibility 10 miles    
Events      
T = Trace of Precipitation, MM = Missing Value Source: NWS Daily Summary

Daily Weather History Graph

Daily Weather History Graph

Search for Another Location

Airport:

Trip Planner

Search our weather history database for the weather conditions in past years. The results will help you decide how hot, cold, wet, or windy it might be!

Date:

Astronomy

Nov. 07, 2012 Rise Set
Actual Time 6:47 AM EST 5:03 PM EST
Civil Twilight 6:18 AM EST 5:31 PM EST
Nautical Twilight 5:46 AM EST 6:03 PM EST
Astronomical Twilight 5:15 AM EST 6:35 PM EST
Moon No Moon Rise 1:09 PM EST (11/7)
Length of Visible Light 11h 12m
Length of Day
10h 16m
Last Quarter, 43% of the Moon is Illuminated
Nov 7
Last Quarter
Nov 13
New
Nov 20
First Quarter
Nov 28
Full
Dec 6
Last Quarter

Hourly Weather History & Observations

Time (EST) Temp. Windchill Dew Point Humidity Pressure Visibility Wind Dir Wind Speed Gust Speed Precip Events Conditions
12:53 AM 35.1 °F 31.0 °F 25.0 °F 67% 30.03 in 10.0 mi North 4.6 mph - N/A   Overcast
1:53 AM 35.1 °F 32.2 °F 25.0 °F 67% 30.01 in 10.0 mi North 3.5 mph - N/A   Mostly Cloudy
2:53 AM 36.0 °F 31.1 °F 25.0 °F 64% 29.99 in 10.0 mi North 5.8 mph - N/A   Overcast
3:53 AM 36.0 °F 31.1 °F 25.0 °F 64% 29.98 in 10.0 mi NNE 5.8 mph - N/A   Overcast
4:53 AM 35.1 °F 29.3 °F 24.1 °F 64% 29.98 in 10.0 mi North 6.9 mph - N/A   Mostly Cloudy
5:53 AM 35.1 °F 30.1 °F 24.1 °F 64% 29.98 in 10.0 mi North 5.8 mph - N/A   Scattered Clouds
6:53 AM 35.1 °F 29.3 °F 23.0 °F 61% 29.99 in 10.0 mi North 6.9 mph - N/A   Clear
7:53 AM 36.0 °F 31.1 °F 23.0 °F 59% 30.00 in 10.0 mi North 5.8 mph - N/A   Partly Cloudy
8:53 AM 37.0 °F 31.6 °F 21.9 °F 54% 29.99 in 10.0 mi NNW 6.9 mph - N/A   Mostly Cloudy
9:53 AM 37.9 °F 32.1 °F 23.0 °F 55% 29.97 in 10.0 mi NNW 8.1 mph - N/A   Partly Cloudy
10:53 AM 39.0 °F 32.8 °F 24.1 °F 55% 29.96 in 10.0 mi North 9.2 mph - N/A   Partly Cloudy
11:53 AM 39.9 °F 33.4 °F 24.1 °F 53% 29.94 in 10.0 mi NNW 10.4 mph - N/A   Mostly Cloudy
12:53 PM 41.0 °F 36.4 °F 24.1 °F 51% 29.94 in 10.0 mi NNW 6.9 mph - N/A   Overcast
1:53 PM 42.1 °F 36.1 °F 24.1 °F 49% 29.94 in 10.0 mi North 10.4 mph - N/A   Mostly Cloudy
2:53 PM 41.0 °F 35.2 °F 23.0 °F 49% 29.94 in 10.0 mi North 9.2 mph - N/A   Scattered Clouds
3:53 PM 42.1 °F 38.4 °F 25.0 °F 51% 29.94 in 10.0 mi North 5.8 mph - N/A   Overcast
4:53 PM 41.0 °F 39.0 °F 26.1 °F 55% 29.95 in 10.0 mi NNE 3.5 mph - N/A   Overcast
6:53 PM 41.0 °F 35.8 °F 24.1 °F 51% 29.96 in 10.0 mi NNW 8.1 mph - N/A   Overcast
7:53 PM 39.9 °F 35.8 °F 21.9 °F 49% 29.97 in 10.0 mi NNW 5.8 mph - N/A   Mostly Cloudy
8:53 PM 39.9 °F 35.1 °F 19.9 °F 45% 29.96 in 10.0 mi NNW 6.9 mph - N/A   Mostly Cloudy
9:53 PM 39.9 °F 35.1 °F 19.9 °F 45% 29.97 in 10.0 mi NNW 6.9 mph - N/A   Scattered Clouds
10:53 PM 39.9 °F 35.1 °F 19.0 °F 43% 29.96 in 10.0 mi NW 6.9 mph - N/A   Clear
11:53 PM 39.9 °F 34.5 °F 16.0 °F 38% 29.96 in 10.0 mi NW 8.1 mph - N/A   Clear